Location: Newark
(44.3248°N, 23.7839°E)
Time: 05:02:28
(UTC+00:00)

FO-29 - Pass Details

Date: 27 April 2024
Orbit: 801 x 1320 km, 98.6° (Epoch: 28 May)

Event Time Altitude Azimuth Distance (km) Brightness Sun altitude
Rises 01:08:48 0° 9° (N) 4,218 13.7 -20.6°
Reaches altitude 10° 01:11:31 10° 5° (N) 3,289 12.9 -20.2°
Maximum altitude 01:18:53 51° 293° (WNW) 1,625 10.5 -19.3°
Enters shadow 01:22:59 27° 233° (SW) 2,284 10.8 -18.8°
